Simultaneous Nadir Overpasses (SNOs) Predictions

Prediction of SNOs between GOES-17 and NOAA-19 Satellite Orbit:

Table of predicted SNOs for the next 14.0 days since TLE Epoch: 1/20/2024
Index Date Time (GOES-17) GOES-17 Lat,Lon NOAA-19 Lat,Lon Distance(km) Time Diff (sec)
1 01/20/2024 04:06:27 -0.00,-104.66 0.00,-106.08 157.11 80
2 01/21/2024 03:51:31 -0.00,-104.66 0.39,-103.05 184.85 80
3 01/23/2024 16:11:13 0.00,-104.67 0.72,-107.73 348.90 80
4 01/24/2024 15:59:03 0.00,-104.67 0.05,-104.76 11.01 80
5 01/25/2024 15:49:32 0.01,-104.67 -0.63,-101.80 327.51 80
6 01/28/2024 04:09:19 -0.02,-104.67 -0.46,-106.50 210.07 80
7 01/29/2024 03:54:29 -0.02,-104.67 0.25,-103.55 128.54 80
8 01/30/2024 03:42:17 -0.03,-104.67 0.89,-100.57 467.18 80
9 01/31/2024 16:14:12 0.03,-104.69 0.82,-108.24 404.98 80
10 02/01/2024 16:02:01 0.03,-104.69 0.18,-105.27 66.38 80
11 02/02/2024 15:52:31 0.03,-104.69 -0.52,-102.31 272.19 80
